Time,TemperatureF,DewpointF,PressureIn,WindDirection,WindDirectionDegrees,WindSpeedMPH,WindSpeedGustMPH,Humidity,HourlyPrecipIn,Conditions,Clouds,dailyrainin,SoftwareType,DateUTC
2013-01-05 00:00:00,38.4,30.8,30.36,NNE,23,1.0,-999.0,74,0.00,,,0.00,Wunderground v.1.15,2013-01-05 08:00:00,
2013-01-05 00:05:00,38.4,30.8,30.36,NNE,23,1.0,-999.0,74,0.00,,,0.00,Wunderground v.1.15,2013-01-05 08:05:00,
2013-01-05 00:10:00,38.4,30.8,30.36,NNE,23,1.0,-999.0,74,0.00,,,0.00,Wunderground v.1.15,2013-01-05 08:10:00,
2013-01-05 00:15:00,38.6,30.7,30.35,NNE,23,1.0,-999.0,73,0.00,,,0.00,Wunderground v.1.15,2013-01-05 08:15:00,
2013-01-05 00:20:00,38.6,30.7,30.35,NNE,23,1.0,-999.0,73,0.00,,,0.00,Wunderground v.1.15,2013-01-05 08:20:00,
2013-01-05 00:25:00,38.8,30.9,30.35,NNE,23,1.0,-999.0,73,0.00,,,0.00,Wunderground v.1.15,2013-01-05 08:25:00,
2013-01-05 00:30:00,38.8,30.9,30.35,NNE,23,1.0,-999.0,73,0.00,,,0.00,Wunderground v.1.15,2013-01-05 08:30:00,
2013-01-05 00:35:00,38.9,30.6,30.35,NNE,23,1.0,-999.0,72,0.00,,,0.00,Wunderground v.1.15,2013-01-05 08:35:00,
2013-01-05 00:40:00,38.9,30.6,30.35,NNE,23,1.0,-999.0,72,0.00,,,0.00,Wunderground v.1.15,2013-01-05 08:40:00,
2013-01-05 00:45:00,39.2,30.6,30.35,NNE,23,1.0,-999.0,71,0.00,,,0.00,Wunderground v.1.15,2013-01-05 08:45:00,
2013-01-05 00:50:00,39.2,30.6,30.35,NNE,23,1.0,-999.0,71,0.00,,,0.00,Wunderground v.1.15,2013-01-05 08:50:00,
2013-01-05 00:55:00,39.9,30.5,30.35,NE,45,0.0,-999.0,69,0.00,,,0.00,Wunderground v.1.15,2013-01-05 08:55:00,
2013-01-05 01:00:00,39.9,30.5,30.35,NE,45,0.0,-999.0,69,0.00,,,0.00,Wunderground v.1.15,2013-01-05 09:00:00,
2013-01-05 01:05:00,40.7,30.6,30.35,NE,45,0.0,-999.0,67,0.00,,,0.00,Wunderground v.1.15,2013-01-05 09:05:00,
2013-01-05 01:10:00,40.7,30.6,30.35,NE,45,0.0,-999.0,67,0.00,,,0.00,Wunderground v.1.15,2013-01-05 09:10:00,
2013-01-05 01:15:00,41.5,31.0,30.35,NE,45,0.0,-999.0,66,0.00,,,0.00,Wunderground v.1.15,2013-01-05 09:15:00,
2013-01-05 01:20:00,41.5,31.0,30.35,NE,45,0.0,-999.0,66,0.00,,,0.00,Wunderground v.1.15,2013-01-05 09:20:00,
2013-01-05 01:25:00,41.9,31.0,30.34,ENE,68,0.0,-999.0,65,0.00,,,0.00,Wunderground v.1.15,2013-01-05 09:25:00,
2013-01-05 01:30:00,41.9,31.0,30.34,ENE,68,0.0,-999.0,65,0.00,,,0.00,Wunderground v.1.15,2013-01-05 09:30:00,
2013-01-05 01:35:00,42.3,31.0,30.35,ENE,68,1.0,-999.0,64,0.00,,,0.00,Wunderground v.1.15,2013-01-05 09:35:00,
2013-01-05 01:40:00,42.3,31.0,30.35,ENE,68,1.0,-999.0,64,0.00,,,0.00,Wunderground v.1.15,2013-01-05 09:40:00,
2013-01-05 01:45:00,42.7,31.4,30.35,ENE,68,1.0,-999.0,64,0.00,,,0.00,Wunderground v.1.15,2013-01-05 09:45:00,
2013-01-05 01:50:00,42.7,31.4,30.35,ENE,68,1.0,-999.0,64,0.00,,,0.00,Wunderground v.1.15,2013-01-05 09:50:00,
2013-01-05 01:55:00,42.6,31.3,30.35,East,90,0.0,-999.0,64,0.00,,,0.00,Wunderground v.1.15,2013-01-05 09:55:00,
2013-01-05 02:00:00,42.6,31.3,30.35,East,90,0.0,-999.0,64,0.00,,,0.00,Wunderground v.1.15,2013-01-05 10:00:00,
2013-01-05 02:05:00,42.4,31.1,30.35,NE,45,1.0,-999.0,64,0.00,,,0.00,Wunderground v.1.15,2013-01-05 10:05:00,
2013-01-05 02:10:00,42.4,31.1,30.35,NE,45,1.0,-999.0,64,0.00,,,0.00,Wunderground v.1.15,2013-01-05 10:10:00,
2013-01-05 02:15:00,41.4,31.3,30.35,NE,45,0.0,-999.0,67,0.00,,,0.00,Wunderground v.1.15,2013-01-05 10:15:00,
2013-01-05 02:20:00,41.4,31.3,30.35,NE,45,0.0,-999.0,67,0.00,,,0.00,Wunderground v.1.15,2013-01-05 10:20:00,
2013-01-05 02:25:00,40.3,31.3,30.35,NE,45,1.0,-999.0,70,0.00,,,0.00,Wunderground v.1.15,2013-01-05 10:25:00,
2013-01-05 02:30:00,40.3,31.3,30.35,NE,45,1.0,-999.0,70,0.00,,,0.00,Wunderground v.1.15,2013-01-05 10:30:00,
2013-01-05 02:35:00,39.2,30.6,30.35,NE,45,1.0,-999.0,71,0.00,,,0.00,Wunderground v.1.15,2013-01-05 10:35:00,
2013-01-05 02:40:00,39.2,30.6,30.35,NE,45,1.0,-999.0,71,0.00,,,0.00,Wunderground v.1.15,2013-01-05 10:40:00,
2013-01-05 02:45:00,38.8,30.5,30.35,North,0,1.0,-999.0,72,0.00,,,0.00,Wunderground v.1.15,2013-01-05 10:45:00,
2013-01-05 02:50:00,38.8,30.5,30.35,North,0,1.0,-999.0,72,0.00,,,0.00,Wunderground v.1.15,2013-01-05 10:50:00,
2013-01-05 02:55:00,38.6,30.4,30.35,North,0,1.0,-999.0,72,0.00,,,0.00,Wunderground v.1.15,2013-01-05 10:55:00,
2013-01-05 03:00:00,38.6,30.4,30.35,North,0,1.0,-999.0,72,0.00,,,0.00,Wunderground v.1.15,2013-01-05 11:00:00,
2013-01-05 03:05:00,38.1,30.5,30.35,North,0,1.0,-999.0,74,0.00,,,0.00,Wunderground v.1.15,2013-01-05 11:05:00,
2013-01-05 03:10:00,38.1,30.5,30.35,North,0,1.0,-999.0,74,0.00,,,0.00,Wunderground v.1.15,2013-01-05 11:10:00,
2013-01-05 03:15:00,37.9,30.4,30.35,North,0,1.0,-999.0,74,0.00,,,0.00,Wunderground v.1.15,2013-01-05 11:15:00,
2013-01-05 03:20:00,37.9,30.4,30.35,North,0,1.0,-999.0,74,0.00,,,0.00,Wunderground v.1.15,2013-01-05 11:20:00,
2013-01-05 03:25:00,38.4,30.5,30.34,North,0,1.0,-999.0,73,0.00,,,0.00,Wunderground v.1.15,2013-01-05 11:25:00,
2013-01-05 03:30:00,38.4,30.5,30.34,North,0,1.0,-999.0,73,0.00,,,0.00,Wunderground v.1.15,2013-01-05 11:30:00,
2013-01-05 03:35:00,38.6,30.7,30.34,North,0,0.0,-999.0,73,0.00,,,0.00,Wunderground v.1.15,2013-01-05 11:35:00,
2013-01-05 03:40:00,38.6,30.7,30.34,North,0,0.0,-999.0,73,0.00,,,0.00,Wunderground v.1.15,2013-01-05 11:40:00,
2013-01-05 03:45:00,38.4,30.8,30.35,North,0,1.0,-999.0,74,0.00,,,0.00,Wunderground v.1.15,2013-01-05 11:45:00,
2013-01-05 03:50:00,38.4,30.8,30.35,North,0,1.0,-999.0,74,0.00,,,0.00,Wunderground v.1.15,2013-01-05 11:50:00,
2013-01-05 03:55:00,38.4,30.5,30.34,North,0,1.0,-999.0,73,0.00,,,0.00,Wunderground v.1.15,2013-01-05 11:55:00,
2013-01-05 04:00:00,38.4,30.5,30.34,North,0,1.0,-999.0,73,0.00,,,0.00,Wunderground v.1.15,2013-01-05 12:00:00,
2013-01-05 04:05:00,38.6,30.4,30.34,North,0,0.0,-999.0,72,0.00,,,0.00,Wunderground v.1.15,2013-01-05 12:05:00,
2013-01-05 04:10:00,38.6,30.4,30.34,North,0,0.0,-999.0,72,0.00,,,0.00,Wunderground v.1.15,2013-01-05 12:10:00,
2013-01-05 04:15:00,39.0,30.7,30.35,North,0,1.0,-999.0,72,0.00,,,0.00,Wunderground v.1.15,2013-01-05 12:15:00,
2013-01-05 04:20:00,39.0,30.7,30.35,North,0,1.0,-999.0,72,0.00,,,0.00,Wunderground v.1.15,2013-01-05 12:20:00,
2013-01-05 04:25:00,38.9,30.3,30.34,North,0,1.0,-999.0,71,0.00,,,0.00,Wunderground v.1.15,2013-01-05 12:25:00,
2013-01-05 04:30:00,38.9,30.3,30.34,North,0,1.0,-999.0,71,0.00,,,0.00,Wunderground v.1.15,2013-01-05 12:30:00,
2013-01-05 04:35:00,39.6,30.3,30.34,North,0,0.0,-999.0,69,0.00,,,0.00,Wunderground v.1.15,2013-01-05 12:35:00,
2013-01-05 04:40:00,39.6,30.3,30.34,North,0,0.0,-999.0,69,0.00,,,0.00,Wunderground v.1.15,2013-01-05 12:40:00,
2013-01-05 04:45:00,39.7,31.1,30.34,North,0,1.0,-999.0,71,0.00,,,0.00,Wunderground v.1.15,2013-01-05 12:45:00,
2013-01-05 04:50:00,39.7,31.1,30.34,North,0,1.0,-999.0,71,0.00,,,0.00,Wunderground v.1.15,2013-01-05 12:50:00,
2013-01-05 04:55:00,38.9,30.6,30.35,North,0,1.0,-999.0,72,0.00,,,0.00,Wunderground v.1.15,2013-01-05 12:55:00,
2013-01-05 05:00:00,38.9,30.6,30.35,North,0,1.0,-999.0,72,0.00,,,0.00,Wunderground v.1.15,2013-01-05 13:00:00,
2013-01-05 05:05:00,38.7,30.1,30.34,North,0,0.0,-999.0,71,0.00,,,0.00,Wunderground v.1.15,2013-01-05 13:05:00,
2013-01-05 05:10:00,38.7,30.1,30.34,North,0,0.0,-999.0,71,0.00,,,0.00,Wunderground v.1.15,2013-01-05 13:10:00,
2013-01-05 05:15:00,39.1,30.1,30.34,North,0,0.0,-999.0,70,0.00,,,0.00,Wunderground v.1.15,2013-01-05 13:15:00,
2013-01-05 05:20:00,39.1,30.1,30.34,North,0,0.0,-999.0,70,0.00,,,0.00,Wunderground v.1.15,2013-01-05 13:20:00,
2013-01-05 05:25:00,39.4,30.8,30.34,North,0,0.0,-999.0,71,0.00,,,0.00,Wunderground v.1.15,2013-01-05 13:25:00,
2013-01-05 05:30:00,39.4,30.8,30.34,North,0,0.0,-999.0,71,0.00,,,0.00,Wunderground v.1.15,2013-01-05 13:30:00,
2013-01-05 05:35:00,39.7,29.6,30.34,ENE,68,0.0,-999.0,67,0.00,,,0.00,Wunderground v.1.15,2013-01-05 13:35:00,
2013-01-05 05:40:00,39.7,29.6,30.34,ENE,68,0.0,-999.0,67,0.00,,,0.00,Wunderground v.1.15,2013-01-05 13:40:00,
2013-01-05 05:45:00,41.8,30.9,30.34,ENE,68,0.0,-999.0,65,0.00,,,0.00,Wunderground v.1.15,2013-01-05 13:45:00,
2013-01-05 05:50:00,41.8,30.9,30.34,ENE,68,0.0,-999.0,65,0.00,,,0.00,Wunderground v.1.15,2013-01-05 13:50:00,
2013-01-05 05:55:00,41.6,33.2,30.34,ENE,68,0.0,-999.0,72,0.00,,,0.00,Wunderground v.1.15,2013-01-05 13:55:00,
2013-01-05 06:00:00,41.6,33.2,30.34,ENE,68,0.0,-999.0,72,0.00,,,0.00,Wunderground v.1.15,2013-01-05 14:00:00,
2013-01-05 06:05:00,39.5,30.9,30.35,ENE,68,0.0,-999.0,71,0.00,,,0.00,Wunderground v.1.15,2013-01-05 14:05:00,
2013-01-05 06:10:00,39.5,30.9,30.35,ENE,68,0.0,-999.0,71,0.00,,,0.00,Wunderground v.1.15,2013-01-05 14:10:00,
2013-01-05 06:15:00,39.1,31.2,30.34,ENE,68,0.0,-999.0,73,0.00,,,0.00,Wunderground v.1.15,2013-01-05 14:15:00,
2013-01-05 06:20:00,39.1,31.2,30.34,ENE,68,0.0,-999.0,73,0.00,,,0.00,Wunderground v.1.15,2013-01-05 14:20:00,
2013-01-05 06:25:00,38.1,30.5,30.35,ENE,68,0.0,-999.0,74,0.00,,,0.00,Wunderground v.1.15,2013-01-05 14:25:00,
2013-01-05 06:30:00,38.1,30.5,30.35,ENE,68,0.0,-999.0,74,0.00,,,0.00,Wunderground v.1.15,2013-01-05 14:30:00,
2013-01-05 06:35:00,38.2,30.3,30.35,ENE,68,1.0,-999.0,73,0.00,,,0.00,Wunderground v.1.15,2013-01-05 14:35:00,
2013-01-05 06:40:00,38.2,30.3,30.35,ENE,68,1.0,-999.0,73,0.00,,,0.00,Wunderground v.1.15,2013-01-05 14:40:00,
2013-01-05 06:45:00,38.5,30.6,30.34,ENE,68,0.0,-999.0,73,0.00,,,0.00,Wunderground v.1.15,2013-01-05 14:45:00,
2013-01-05 06:50:00,38.5,30.6,30.34,ENE,68,0.0,-999.0,73,0.00,,,0.00,Wunderground v.1.15,2013-01-05 14:50:00,
2013-01-05 06:55:00,39.3,30.3,30.34,ENE,68,0.0,-999.0,70,0.00,,,0.00,Wunderground v.1.15,2013-01-05 14:55:00,
2013-01-05 07:00:00,39.3,30.3,30.34,ENE,68,0.0,-999.0,70,0.00,,,0.00,Wunderground v.1.15,2013-01-05 15:00:00,
2013-01-05 07:05:00,40.2,30.8,30.34,ENE,68,0.0,-999.0,69,0.00,,,0.00,Wunderground v.1.15,2013-01-05 15:05:00,
2013-01-05 07:10:00,40.2,30.8,30.34,ENE,68,0.0,-999.0,69,0.00,,,0.00,Wunderground v.1.15,2013-01-05 15:10:00,
2013-01-05 07:15:00,41.3,31.2,30.34,ENE,68,0.0,-999.0,67,0.00,,,0.00,Wunderground v.1.15,2013-01-05 15:15:00,
2013-01-05 07:20:00,41.3,31.2,30.34,ENE,68,0.0,-999.0,67,0.00,,,0.00,Wunderground v.1.15,2013-01-05 15:20:00,
2013-01-05 07:25:00,41.7,31.2,30.35,N/A,-737280,0.0,-999.0,66,0.00,,,0.00,Wunderground v.1.15,2013-01-05 15:25:00,
2013-01-05 07:30:00,41.7,31.2,30.35,N/A,-737280,0.0,-999.0,66,0.00,,,0.00,Wunderground v.1.15,2013-01-05 15:30:00,
2013-01-05 07:35:00,41.5,32.1,30.35,ENE,68,0.0,-999.0,69,0.00,,,0.00,Wunderground v.1.15,2013-01-05 15:35:00,
2013-01-05 07:40:00,41.5,32.1,30.35,ENE,68,0.0,-999.0,69,0.00,,,0.00,Wunderground v.1.15,2013-01-05 15:40:00,
2013-01-05 07:45:00,40.0,31.4,30.36,ENE,68,0.0,-999.0,71,0.00,,,0.00,Wunderground v.1.15,2013-01-05 15:45:00,
2013-01-05 07:50:00,40.0,31.4,30.36,ENE,68,0.0,-999.0,71,0.00,,,0.00,Wunderground v.1.15,2013-01-05 15:50:00,
2013-01-05 07:55:00,40.0,31.0,30.36,N/A,-737280,0.0,-999.0,70,0.00,,,0.00,Wunderground v.1.15,2013-01-05 15:55:00,
2013-01-05 08:09:00,40.0,31.0,30.36,N/A,-737280,0.0,-999.0,70,0.00,,,0.00,Wunderground v.1.15,2013-01-05 16:09:00,
2013-01-05 08:19:00,40.9,31.9,30.36,ENE,74,0.0,0.0,70,0.00,,,0.00,Wunderground v.1.15,2013-01-05 16:19:00,
2013-01-05 08:24:00,41.6,31.8,30.36,ENE,74,0.0,0.0,68,0.00,,,0.00,Wunderground v.1.15,2013-01-05 16:24:00,
2013-01-05 08:34:00,41.9,32.1,30.37,ENE,74,0.0,0.0,68,0.00,,,0.00,Wunderground v.1.15,2013-01-05 16:34:00,
2013-01-05 08:39:00,43.2,33.0,30.37,ENE,74,0.0,2.0,67,0.00,,,0.00,Wunderground v.1.15,2013-01-05 16:39:00,
2013-01-05 08:50:00,43.5,33.3,30.37,ENE,74,0.0,0.0,67,0.00,,,0.00,Wunderground v.1.15,2013-01-05 16:50:00,
2013-01-05 09:00:00,43.8,33.6,30.37,ENE,74,0.0,0.0,67,0.00,,,0.00,Wunderground v.1.15,2013-01-05 17:00:00,
2013-01-05 09:09:00,44.3,33.7,30.37,ENE,74,0.0,1.0,66,0.00,,,0.00,Wunderground v.1.15,2013-01-05 17:09:00,
2013-01-05 09:14:00,44.9,33.8,30.37,ENE,74,0.0,1.0,65,0.00,,,0.00,Wunderground v.1.15,2013-01-05 17:14:00,
2013-01-05 09:24:00,43.0,33.2,30.37,ENE,69,1.0,1.0,68,0.00,,,0.00,Wunderground v.1.15,2013-01-05 17:24:00,
2013-01-05 09:35:00,43.7,33.5,30.37,NE,53,1.0,1.0,67,0.00,,,0.00,Wunderground v.1.15,2013-01-05 17:35:00,
2013-01-05 09:44:00,43.3,33.1,30.37,North,355,1.0,1.0,67,0.00,,,0.00,Wunderground v.1.15,2013-01-05 17:44:00,
2013-01-05 09:50:00,44.1,33.8,30.37,North,355,1.0,1.0,67,0.00,,,0.00,Wunderground v.1.15,2013-01-05 17:50:00,
2013-01-05 09:55:00,44.1,33.5,30.37,North,355,1.0,1.0,66,0.00,,,0.00,Wunderground v.1.15,2013-01-05 17:55:00,
2013-01-05 10:00:00,44.8,34.1,30.37,North,355,1.0,1.0,66,0.00,,,0.00,Wunderground v.1.15,2013-01-05 18:00:00,
2013-01-05 10:09:00,45.1,34.0,30.37,North,9,1.0,1.0,65,0.00,,,0.00,Wunderground v.1.15,2013-01-05 18:09:00,
2013-01-05 10:14:00,45.3,33.4,30.37,North,5,1.0,2.0,63,0.00,,,0.00,Wunderground v.1.15,2013-01-05 18:14:00,
2013-01-05 10:19:00,45.5,34.0,30.37,WNW,302,1.0,1.0,64,0.00,,,0.00,Wunderground v.1.15,2013-01-05 18:19:00,
2013-01-05 10:24:00,45.9,33.2,30.37,WNW,302,1.0,1.0,61,0.00,,,0.00,Wunderground v.1.15,2013-01-05 18:24:00,
2013-01-05 10:34:00,47.1,33.5,30.36,WNW,302,1.0,1.0,59,0.00,,,0.00,Wunderground v.1.15,2013-01-05 18:34:00,
2013-01-05 10:39:00,47.5,31.2,30.36,SSE,155,1.0,4.0,53,0.00,,,0.00,Wunderground v.1.15,2013-01-05 18:39:00,
2013-01-05 10:45:00,48.6,30.8,30.36,ESE,123,1.0,4.0,50,0.00,,,0.00,Wunderground v.1.15,2013-01-05 18:45:00,
2013-01-05 10:54:00,49.5,31.1,30.35,SE,134,2.0,2.0,49,0.00,,,0.00,Wunderground v.1.15,2013-01-05 18:54:00,
2013-01-05 11:00:00,50.3,29.7,30.35,SE,128,2.0,5.0,45,0.00,,,0.00,Wunderground v.1.15,2013-01-05 19:00:00,
2013-01-05 11:09:00,50.5,28.8,30.33,SSE,156,3.0,3.0,43,0.00,,,0.00,Wunderground v.1.15,2013-01-05 19:09:00,
2013-01-05 11:14:00,50.9,29.7,30.33,SSE,155,3.0,3.0,44,0.00,,,0.00,Wunderground v.1.15,2013-01-05 19:14:00,
2013-01-05 11:24:00,50.9,26.8,30.33,SSE,151,3.0,4.0,39,0.00,,,0.00,Wunderground v.1.15,2013-01-05 19:24:00,
2013-01-05 11:34:00,49.8,26.4,30.32,SE,130,3.0,4.0,40,0.00,,,0.00,Wunderground v.1.15,2013-01-05 19:34:00,
2013-01-05 11:45:00,49.8,28.7,30.31,SSE,153,2.0,3.0,44,0.00,,,0.00,Wunderground v.1.15,2013-01-05 19:45:00,
2013-01-05 11:49:00,49.9,29.4,30.31,SE,132,2.0,2.0,45,0.00,,,0.00,Wunderground v.1.15,2013-01-05 19:49:00,
2013-01-05 12:00:00,49.8,29.3,30.31,SSE,150,2.0,2.0,45,0.00,,,0.00,Wunderground v.1.15,2013-01-05 20:00:00,
2013-01-05 12:09:00,50.0,27.8,30.30,SSE,148,1.0,1.0,42,0.00,,,0.00,Wunderground v.1.15,2013-01-05 20:09:00,
2013-01-05 12:14:00,50.0,31.6,30.30,SSE,156,1.0,1.0,49,0.00,,,0.00,Wunderground v.1.15,2013-01-05 20:14:00,
2013-01-05 12:19:00,50.1,30.6,30.29,SSE,156,1.0,1.0,47,0.00,,,0.00,Wunderground v.1.15,2013-01-05 20:19:00,
2013-01-05 12:24:00,50.0,27.8,30.29,SE,138,1.0,2.0,42,0.00,,,0.00,Wunderground v.1.15,2013-01-05 20:24:00,
2013-01-05 12:34:00,50.0,28.9,30.28,ESE,116,1.0,2.0,44,0.00,,,0.00,Wunderground v.1.15,2013-01-05 20:34:00,
2013-01-05 12:44:00,50.4,30.4,30.27,SE,138,2.0,2.0,46,0.00,,,0.00,Wunderground v.1.15,2013-01-05 20:44:00,
2013-01-05 12:49:00,50.5,29.4,30.27,ESE,121,2.0,2.0,44,0.00,,,0.00,Wunderground v.1.15,2013-01-05 20:49:00,
2013-01-05 12:54:00,50.7,29.6,30.27,SE,140,1.0,2.0,44,0.00,,,0.00,Wunderground v.1.15,2013-01-05 20:54:00,
2013-01-05 13:00:00,50.7,29.0,30.27,South,179,1.0,1.0,43,0.00,,,0.00,Wunderground v.1.15,2013-01-05 21:00:00,
2013-01-05 13:09:00,50.7,31.7,30.26,South,179,0.0,0.0,48,0.00,,,0.00,Wunderground v.1.15,2013-01-05 21:09:00,
2013-01-05 13:19:00,50.9,30.8,30.26,SE,135,1.0,2.0,46,0.00,,,0.00,Wunderground v.1.15,2013-01-05 21:19:00,
2013-01-05 13:24:00,50.7,30.7,30.25,SE,133,1.0,2.0,46,0.00,,,0.00,Wunderground v.1.15,2013-01-05 21:24:00,
2013-01-05 13:34:00,50.8,30.7,30.25,SE,142,1.0,1.0,46,0.00,,,0.00,Wunderground v.1.15,2013-01-05 21:34:00,
2013-01-05 13:40:00,50.9,31.4,30.25,SE,142,1.0,2.0,47,0.00,,,0.00,Wunderground v.1.15,2013-01-05 21:40:00,
2013-01-05 13:45:00,51.0,31.5,30.25,SE,142,1.0,2.0,47,0.00,,,0.00,Wunderground v.1.15,2013-01-05 21:45:00,
2013-01-05 13:50:00,51.0,31.5,30.25,SE,142,1.0,1.0,47,0.00,,,0.00,Wunderground v.1.15,2013-01-05 21:50:00,
2013-01-05 13:55:00,51.1,32.1,30.25,SE,143,0.0,1.0,48,0.00,,,0.00,Wunderground v.1.15,2013-01-05 21:55:00,
2013-01-05 14:00:00,51.0,31.5,30.24,SE,143,0.0,0.0,47,0.00,,,0.00,Wunderground v.1.15,2013-01-05 22:00:00,
2013-01-05 14:09:00,50.7,31.7,30.25,SE,137,0.0,1.0,48,0.00,,,0.00,Wunderground v.1.15,2013-01-05 22:09:00,
2013-01-05 14:14:00,50.4,31.9,30.25,SE,142,0.0,1.0,49,0.00,,,0.00,Wunderground v.1.15,2013-01-05 22:14:00,
2013-01-05 14:19:00,50.1,32.2,30.24,East,81,0.0,0.0,50,0.00,,,0.00,Wunderground v.1.15,2013-01-05 22:19:00,
2013-01-05 14:24:00,49.2,31.3,30.24,SE,144,1.0,2.0,50,0.00,,,0.00,Wunderground v.1.15,2013-01-05 22:24:00,
2013-01-05 14:29:00,48.4,32.0,30.24,SE,144,1.0,1.0,53,0.00,,,0.00,Wunderground v.1.15,2013-01-05 22:29:00,
2013-01-05 14:34:00,48.1,32.7,30.24,SE,144,0.0,1.0,55,0.00,,,0.00,Wunderground v.1.15,2013-01-05 22:34:00,
2013-01-05 14:39:00,47.8,34.6,30.24,East,91,0.0,1.0,60,0.00,,,0.00,Wunderground v.1.15,2013-01-05 22:39:00,
2013-01-05 14:44:00,47.2,36.0,30.25,SW,229,1.0,1.0,65,0.00,,,0.00,Wunderground v.1.15,2013-01-05 22:44:00,
2013-01-05 14:49:00,46.9,36.5,30.24,SSW,213,0.0,0.0,67,0.00,,,0.00,Wunderground v.1.15,2013-01-05 22:49:00,
2013-01-05 14:54:00,46.3,37.0,30.24,SSW,213,0.0,0.0,70,0.00,,,0.00,Wunderground v.1.15,2013-01-05 22:54:00,
2013-01-05 15:00:00,45.7,37.2,30.25,SSW,213,0.0,0.0,72,0.00,,,0.00,Wunderground v.1.15,2013-01-05 23:00:00,
2013-01-05 15:09:00,45.3,37.8,30.25,ENE,73,0.0,2.0,75,0.00,,,0.00,Wunderground v.1.15,2013-01-05 23:09:00,
2013-01-05 15:19:00,44.3,37.9,30.26,NE,49,1.0,1.0,78,0.00,,,0.00,Wunderground v.1.15,2013-01-05 23:19:00,
2013-01-05 15:24:00,43.6,37.5,30.25,NE,49,1.0,1.0,79,0.00,,,0.00,Wunderground v.1.15,2013-01-05 23:24:00,
2013-01-05 15:29:00,43.3,37.5,30.25,NE,49,0.0,1.0,80,0.00,,,0.00,Wunderground v.1.15,2013-01-05 23:29:00,
2013-01-05 15:34:00,43.0,37.6,30.25,NE,49,0.0,1.0,81,0.00,,,0.00,Wunderground v.1.15,2013-01-05 23:34:00,
2013-01-05 15:44:00,42.8,37.7,30.24,NE,49,0.0,0.0,82,0.00,,,0.00,Wunderground v.1.15,2013-01-05 23:44:00,
2013-01-05 15:54:00,42.9,37.8,30.24,NE,49,0.0,2.0,82,0.00,,,0.00,Wunderground v.1.15,2013-01-05 23:54:00,
2013-01-05 16:00:00,42.8,37.7,30.24,NE,49,0.0,1.0,82,0.00,,,0.00,Wunderground v.1.15,2013-01-06 00:00:00,
2013-01-05 16:10:00,43.0,37.3,30.23,ESE,115,1.0,1.0,80,0.00,,,0.00,Wunderground v.1.15,2013-01-06 00:10:00,
2013-01-05 16:19:00,43.2,37.4,30.23,ENE,57,1.0,4.0,80,0.00,,,0.00,Wunderground v.1.15,2013-01-06 00:19:00,
2013-01-05 16:24:00,43.3,37.2,30.24,South,171,1.0,4.0,79,0.00,,,0.00,Wunderground v.1.15,2013-01-06 00:24:00,
2013-01-05 16:34:00,43.1,37.3,30.23,NW,313,1.0,1.0,80,0.00,,,0.00,Wunderground v.1.15,2013-01-06 00:34:00,
2013-01-05 16:39:00,42.9,37.2,30.23,NW,313,1.0,1.0,80,0.00,,,0.00,Wunderground v.1.15,2013-01-06 00:39:00,
2013-01-05 16:44:00,42.8,37.1,30.23,NW,313,0.0,1.0,80,0.00,,,0.00,Wunderground v.1.15,2013-01-06 00:44:00,
2013-01-05 16:49:00,42.8,37.1,30.23,NW,313,0.0,0.0,80,0.00,,,0.00,Wunderground v.1.15,2013-01-06 00:49:00,
2013-01-05 16:54:00,42.7,37.0,30.23,NW,313,0.0,0.0,80,0.00,,,0.00,Wunderground v.1.15,2013-01-06 00:54:00,
2013-01-05 17:00:00,42.5,37.1,30.23,NW,313,0.0,0.0,81,0.00,,,0.00,Wunderground v.1.15,2013-01-06 01:00:00,
2013-01-05 17:10:00,42.2,36.8,30.23,NW,313,0.0,0.0,81,0.00,,,0.00,Wunderground v.1.15,2013-01-06 01:10:00,
2013-01-05 17:19:00,41.9,36.8,30.23,NW,313,0.0,0.0,82,0.00,,,0.00,Wunderground v.1.15,2013-01-06 01:19:00,
2013-01-05 17:24:00,41.8,36.7,30.23,NW,313,0.0,0.0,82,0.00,,,0.00,Wunderground v.1.15,2013-01-06 01:24:00,
2013-01-05 17:29:00,41.8,37.0,30.23,NW,313,0.0,0.0,83,0.00,,,0.00,Wunderground v.1.15,2013-01-06 01:29:00,
2013-01-05 17:34:00,41.7,36.9,30.22,NW,313,0.0,0.0,83,0.00,,,0.00,Wunderground v.1.15,2013-01-06 01:34:00,
2013-01-05 17:44:00,41.6,36.8,30.23,NW,313,0.0,0.0,83,0.00,,,0.00,Wunderground v.1.15,2013-01-06 01:44:00,
2013-01-05 17:54:00,41.4,36.9,30.23,NW,313,0.0,0.0,84,0.00,,,0.00,Wunderground v.1.15,2013-01-06 01:54:00,
2013-01-05 18:00:00,41.2,36.7,30.22,NW,313,0.0,0.0,84,0.00,,,0.00,Wunderground v.1.15,2013-01-06 02:00:00,
2013-01-05 18:09:00,41.0,36.8,30.23,NW,313,0.0,0.0,85,0.00,,,0.00,Wunderground v.1.15,2013-01-06 02:09:00,
2013-01-05 18:14:00,40.9,36.7,30.23,NW,313,0.0,0.0,85,0.00,,,0.00,Wunderground v.1.15,2013-01-06 02:14:00,
2013-01-05 18:24:00,40.8,36.9,30.22,NW,313,0.0,0.0,86,0.00,,,0.00,Wunderground v.1.15,2013-01-06 02:24:00,
2013-01-05 18:29:00,40.7,36.8,30.23,NW,313,0.0,0.0,86,0.00,,,0.00,Wunderground v.1.15,2013-01-06 02:29:00,
2013-01-05 18:34:00,40.6,36.7,30.22,NW,313,0.0,0.0,86,0.00,,,0.00,Wunderground v.1.15,2013-01-06 02:34:00,
2013-01-05 18:44:00,40.4,36.5,30.22,NW,313,0.0,0.0,86,0.00,,,0.00,Wunderground v.1.15,2013-01-06 02:44:00,
2013-01-05 18:54:00,40.3,36.4,30.22,NW,313,0.0,0.0,86,0.00,,,0.00,Wunderground v.1.15,2013-01-06 02:54:00,
2013-01-05 19:00:00,40.3,36.4,30.21,NW,313,0.0,0.0,86,0.00,,,0.00,Wunderground v.1.15,2013-01-06 03:00:00,
2013-01-05 19:05:00,40.3,36.1,30.21,NW,315,0.0,-999.0,85,0.00,,,0.00,Wunderground v.1.15,2013-01-06 03:05:00,
2013-01-05 19:09:00,40.3,36.4,30.21,NW,313,0.0,0.0,86,0.00,,,0.00,Wunderground v.1.15,2013-01-06 03:09:00,
2013-01-05 19:10:00,40.3,36.1,30.21,NW,315,0.0,-999.0,85,0.00,,,0.00,Wunderground v.1.15,2013-01-06 03:10:00,
2013-01-05 19:14:00,40.3,36.1,30.21,NW,313,0.0,0.0,85,0.00,,,0.00,Wunderground v.1.15,2013-01-06 03:14:00,
2013-01-05 19:15:00,40.4,35.9,30.21,NW,315,1.0,-999.0,84,0.00,,,0.00,Wunderground v.1.15,2013-01-06 03:15:00,
2013-01-05 19:19:00,40.4,35.9,30.21,NW,313,1.0,2.0,84,0.00,,,0.00,Wunderground v.1.15,2013-01-06 03:19:00,
2013-01-05 19:20:00,40.4,35.9,30.21,NW,315,1.0,-999.0,84,0.00,,,0.00,Wunderground v.1.15,2013-01-06 03:20:00,
2013-01-05 19:24:00,40.5,36.0,30.21,NW,313,1.0,2.0,84,0.00,,,0.00,Wunderground v.1.15,2013-01-06 03:24:00,
2013-01-05 19:25:00,40.6,35.8,30.21,NW,315,0.0,-999.0,83,0.00,,,0.00,Wunderground v.1.15,2013-01-06 03:25:00,
2013-01-05 19:30:00,40.6,35.8,30.21,NW,315,0.0,-999.0,83,0.00,,,0.00,Wunderground v.1.15,2013-01-06 03:30:00,
2013-01-05 19:34:00,40.7,35.9,30.21,NW,313,1.0,1.0,83,0.00,,,0.00,Wunderground v.1.15,2013-01-06 03:34:00,
2013-01-05 19:35:00,40.8,36.0,30.22,NW,315,0.0,-999.0,83,0.00,,,0.00,Wunderground v.1.15,2013-01-06 03:35:00,
2013-01-05 19:39:00,40.9,36.1,30.21,NW,313,0.0,0.0,83,0.00,,,0.00,Wunderground v.1.15,2013-01-06 03:39:00,
2013-01-05 19:40:00,40.8,36.0,30.22,NW,315,0.0,-999.0,83,0.00,,,0.00,Wunderground v.1.15,2013-01-06 03:40:00,
2013-01-05 19:44:00,41.0,35.9,30.21,NW,313,0.0,0.0,82,0.00,,,0.00,Wunderground v.1.15,2013-01-06 03:44:00,
2013-01-05 19:45:00,41.0,35.9,30.21,NW,315,0.0,-999.0,82,0.00,,,0.00,Wunderground v.1.15,2013-01-06 03:45:00,
2013-01-05 19:50:00,41.0,35.9,30.21,NW,315,0.0,-999.0,82,0.00,,,0.00,Wunderground v.1.15,2013-01-06 03:50:00,
2013-01-05 19:54:00,41.0,35.9,30.22,NW,313,0.0,0.0,82,0.00,,,0.00,Wunderground v.1.15,2013-01-06 03:54:00,
2013-01-05 19:55:00,41.0,35.9,30.22,NW,315,0.0,-999.0,82,0.00,,,0.00,Wunderground v.1.15,2013-01-06 03:55:00,
2013-01-05 20:00:00,41.0,35.9,30.21,NW,313,0.0,0.0,82,0.00,,,0.00,Wunderground v.1.15,2013-01-06 04:00:00,
2013-01-05 20:05:00,41.0,35.6,30.22,NW,315,0.0,-999.0,81,0.00,,,0.00,Wunderground v.1.15,2013-01-06 04:05:00,
2013-01-05 20:10:00,41.0,35.6,30.22,NW,315,0.0,-999.0,81,0.00,,,0.00,Wunderground v.1.15,2013-01-06 04:10:00,
2013-01-05 20:15:00,41.1,35.7,30.21,NW,315,0.0,-999.0,81,0.00,,,0.00,Wunderground v.1.15,2013-01-06 04:15:00,
2013-01-05 20:20:00,41.1,35.7,30.21,NW,315,0.0,-999.0,81,0.00,,,0.00,Wunderground v.1.15,2013-01-06 04:20:00,
2013-01-05 20:25:00,41.1,35.7,30.21,NW,315,0.0,-999.0,81,0.00,,,0.00,Wunderground v.1.15,2013-01-06 04:25:00,
2013-01-05 20:30:00,41.1,35.7,30.21,NW,315,0.0,-999.0,81,0.00,,,0.00,Wunderground v.1.15,2013-01-06 04:30:00,
2013-01-05 20:35:00,41.0,35.3,30.20,NW,315,0.0,-999.0,80,0.00,,,0.00,Wunderground v.1.15,2013-01-06 04:35:00,
2013-01-05 20:40:00,41.0,35.3,30.20,NW,315,0.0,-999.0,80,0.00,,,0.00,Wunderground v.1.15,2013-01-06 04:40:00,
2013-01-05 20:45:00,41.1,35.1,30.20,NW,315,0.0,-999.0,79,0.00,,,0.00,Wunderground v.1.15,2013-01-06 04:45:00,
2013-01-05 20:55:00,41.6,34.9,30.20,NE,49,1.0,3.0,77,0.00,,,0.00,Wunderground v.1.15,2013-01-06 04:55:00,
2013-01-05 21:00:00,42.1,34.7,30.20,East,96,1.0,1.0,75,0.00,,,0.00,Wunderground v.1.15,2013-01-06 05:00:00,
2013-01-05 21:04:00,42.1,34.7,30.20,East,97,1.0,1.0,75,0.00,,,0.00,Wunderground v.1.15,2013-01-06 05:04:00,
2013-01-05 21:20:00,41.3,35.0,30.20,SSE,148,1.0,1.0,78,0.00,,,0.00,Wunderground v.1.15,2013-01-06 05:20:00,
2013-01-05 21:25:00,40.8,35.1,30.20,SSE,148,1.0,1.0,80,0.00,,,0.00,Wunderground v.1.15,2013-01-06 05:25:00,
2013-01-05 21:30:00,40.6,34.9,30.20,SSE,148,1.0,1.0,80,0.00,,,0.00,Wunderground v.1.15,2013-01-06 05:30:00,
2013-01-05 21:35:00,40.7,35.0,30.20,SSE,148,1.0,1.0,80,0.00,,,0.00,Wunderground v.1.15,2013-01-06 05:35:00,
2013-01-05 21:45:00,40.6,34.9,30.20,SSE,148,0.0,1.0,80,0.00,,,0.00,Wunderground v.1.15,2013-01-06 05:45:00,
2013-01-05 21:55:00,40.5,34.5,30.20,SSE,148,0.0,0.0,79,0.00,,,0.00,Wunderground v.1.15,2013-01-06 05:55:00,
2013-01-05 22:00:00,40.5,34.5,30.20,SSE,148,0.0,0.0,79,0.00,,,0.00,Wunderground v.1.15,2013-01-06 06:00:00,
2013-01-05 22:10:00,40.7,34.4,30.21,SSE,148,0.0,0.0,78,0.00,,,0.00,Wunderground v.1.15,2013-01-06 06:10:00,
2013-01-05 22:20:00,40.8,34.1,30.21,SSE,148,0.0,0.0,77,0.00,,,0.00,Wunderground v.1.15,2013-01-06 06:20:00,
2013-01-05 22:25:00,40.7,34.0,30.21,SSE,148,0.0,0.0,77,0.00,,,0.00,Wunderground v.1.15,2013-01-06 06:25:00,
2013-01-05 22:30:00,40.5,33.9,30.21,SSE,148,0.0,0.0,77,0.00,,,0.00,Wunderground v.1.15,2013-01-06 06:30:00,
2013-01-05 22:35:00,40.5,33.9,30.21,SSE,148,0.0,0.0,77,0.00,,,0.00,Wunderground v.1.15,2013-01-06 06:35:00,
2013-01-05 22:45:00,39.8,34.1,30.21,SSE,148,0.0,0.0,80,0.00,,,0.00,Wunderground v.1.15,2013-01-06 06:45:00,
2013-01-05 22:50:00,39.6,34.2,30.20,SSE,148,0.0,0.0,81,0.00,,,0.00,Wunderground v.1.15,2013-01-06 06:50:00,
2013-01-05 22:55:00,39.7,34.3,30.20,SSE,148,0.0,1.0,81,0.00,,,0.00,Wunderground v.1.15,2013-01-06 06:55:00,
2013-01-05 23:00:00,39.8,34.4,30.20,SSE,148,0.0,0.0,81,0.00,,,0.00,Wunderground v.1.15,2013-01-06 07:00:00,
2013-01-05 23:05:00,40.0,34.0,30.20,SSE,158,0.0,-999.0,79,0.00,,,0.00,Wunderground v.1.15,2013-01-06 07:05:00,
2013-01-05 23:10:00,40.2,34.2,30.20,SSE,148,0.0,0.0,79,0.00,,,0.00,Wunderground v.1.15,2013-01-06 07:10:00,
2013-01-05 23:15:00,40.2,34.2,30.20,N/A,-737280,0.0,-999.0,79,0.00,,,0.00,Wunderground v.1.15,2013-01-06 07:15:00,
2013-01-05 23:20:00,40.1,34.1,30.20,SSE,148,0.0,0.0,79,0.00,,,0.00,Wunderground v.1.15,2013-01-06 07:20:00,
2013-01-05 23:25:00,40.0,34.3,30.20,SSE,148,0.0,0.0,80,0.00,,,0.00,Wunderground v.1.15,2013-01-06 07:25:00,
2013-01-05 23:30:00,39.9,33.9,30.20,N/A,-737280,0.0,-999.0,79,0.00,,,0.00,Wunderground v.1.15,2013-01-06 07:30:00,
2013-01-05 23:35:00,39.9,33.6,30.20,SSE,148,0.0,0.0,78,0.00,,,0.00,Wunderground v.1.15,2013-01-06 07:35:00,
2013-01-05 23:40:00,40.0,34.0,30.20,N/A,-737280,0.0,-999.0,79,0.00,,,0.00,Wunderground v.1.15,2013-01-06 07:40:00,
2013-01-05 23:45:00,40.3,34.3,30.20,SSE,148,0.0,0.0,79,0.00,,,0.00,Wunderground v.1.15,2013-01-06 07:45:00,
2013-01-05 23:50:00,40.0,34.6,30.20,SSE,148,0.0,2.0,81,0.00,,,0.00,Wunderground v.1.15,2013-01-06 07:50:00,
2013-01-05 23:55:00,39.2,34.5,30.19,SSE,158,1.0,-999.0,83,0.00,,,0.00,Wunderground v.1.15,2013-01-06 07:55:00,